EW6606 Weather Reports


Display with metric or nautical units.
time (UTC)temp
F
wind
direction
speed
MPH
gust
MPH
rain 1hr
in
rain 24hr
in
rain mn
in
humidity
%
barometer
mb
20260503232140 69 255 1.0 2.0 0.00 0.00 0.00 43 1018.0
20260503231638 69 351 0.0 2.0 0.00 0.00 0.00 42 1018.0
20260503231134 69 29 2.0 3.0 0.00 0.00 0.00 43 1018.0
20260503230631 70 79 2.0 2.0 0.00 0.00 0.00 41 1018.1
20260503230128 70 31 0.0 3.0 0.00 0.00 0.00 42 1018.2
20260503225626 70 32 0.0 2.0 0.00 0.00 0.00 41 1018.1
20260503225125 70 303 1.0 5.0 0.00 0.00 0.00 41 1018.4
20260503224623 70 0 0.0 3.0 0.00 0.00 0.00 41 1018.3
20260503224121 70 24 2.0 3.0 0.00 0.00 0.00 41 1018.2
20260503223618 70 32 0.0 2.0 0.00 0.00 0.00 40 1018.3
20260503223114 71 358 1.0 5.0 0.00 0.00 0.00 40 1018.3
20260503222612 71 23 0.0 3.0 0.00 0.00 0.00 40 1018.4
20260503222109 71 265 1.0 5.0 0.00 0.00 0.00 39 1018.4
20260503221608 71 217 3.0 6.0 0.00 0.00 0.00 40 1018.4
20260503221105 71 207 2.0 4.0 0.00 0.00 0.00 40 1018.4
20260503220601 71 257 0.0 4.0 0.00 0.00 0.00 40 1018.4
20260503220058 71 55 1.0 2.0 0.00 0.00 0.00 41 1018.6
20260503215555 71 3 1.0 7.0 0.00 0.00 0.00 40 1018.6
20260503215052 71 251 3.0 7.0 0.00 0.00 0.00 40 1018.6
20260503214550 71 187 0.0 3.0 0.00 0.00 0.00 40 1018.5
20260503214046 71 60 2.0 5.0 0.00 0.00 0.00 40 1018.7
20260503213545 71 162 0.0 3.0 0.00 0.00 0.00 39 1018.7
20260503213041 71 242 1.0 6.0 0.00 0.00 0.00 40 1018.6
20260503212539 71 78 0.0 3.0 0.00 0.00 0.00 40 1018.9
20260503212036 71 48 3.0 4.0 0.00 0.00 0.00 40 1018.9
20260503211533 71 64 3.0 5.0 0.00 0.00 0.00 41 1018.8
20260503211028 71 44 3.0 5.0 0.00 0.00 0.00 41 1019.0
20260503210525 71 45 3.0 8.0 0.00 0.00 0.00 40 1019.0
20260503210021 71 39 1.0 4.0 0.00 0.00 0.00 39 1019.1
20260503205518 71 40 1.0 3.0 0.00 0.00 0.00 39 1019.1
20260503205014 70 258 0.0 5.0 0.00 0.00 0.00 39 1019.3
20260503204512 71 218 2.0 4.0 0.00 0.00 0.00 38 1019.3
20260503204008 71 218 3.0 6.0 0.00 0.00 0.00 39 1019.4
20260503203506 70 150 0.0 7.0 0.00 0.00 0.00 38 1019.4
20260503203003 71 347 2.0 3.0 0.00 0.00 0.00 38 1019.4
20260503202500 71 31 4.0 6.0 0.00 0.00 0.00 37 1019.6
20260503201959 71 335 3.0 8.0 0.00 0.00 0.00 40 1019.7
20260503201456 71 48 4.0 8.0 0.00 0.00 0.00 40 1019.8
20260503200953 71 191 2.0 9.0 0.00 0.00 0.00 41 1020.1
20260503200449 71 34 2.0 6.0 0.00 0.00 0.00 41 1019.9
20260503195946 71 271 3.0 6.0 0.00 0.00 0.00 40 1020.0
20260503195443 71 271 2.0 7.0 0.00 0.00 0.00 41 1020.2
20260503194940 70 53 0.0 4.0 0.00 0.00 0.00 43 1020.4
20260503194437 70 62 0.0 2.0 0.00 0.00 0.00 39 1020.4
20260503193932 71 62 2.0 7.0 0.00 0.00 0.00 39 1020.5
20260503193428 70 55 2.0 4.0 0.00 0.00 0.00 41 1020.7
20260503192923 70 263 2.0 11.0 0.00 0.00 0.00 41 1020.7
20260503192420 70 37 4.0 17.0 0.00 0.00 0.00 38 1020.7
20260503191916 70 210 2.0 10.0 0.00 0.00 0.00 37 1020.8
20260503191414 70 262 3.0 8.0 0.00 0.00 0.00 39 1020.7
20260503190910 70 75 0.0 10.0 0.00 0.00 0.00 40 1021.1
20260503190408 70 5 4.0 10.0 0.00 0.00 0.00 38 1021.0
20260503185904 70 32 3.0 6.0 0.00 0.00 0.00 40 1021.1
20260503185401 70 14 1.0 10.0 0.00 0.00 0.00 41 1021.2
20260503184900 70 340 3.0 9.0 0.00 0.00 0.00 40 1021.3
20260503184356 70 288 2.0 4.0 0.00 0.00 0.00 42 1021.2
20260503183852 70 50 1.0 7.0 0.00 0.00 0.00 41 1021.5
20260503183350 70 56 3.0 11.0 0.00 0.00 0.00 42 1021.5
20260503182847 69 30 4.0 5.0 0.00 0.00 0.00 42 1021.5
20260503182346 69 249 5.0 9.0 0.00 0.00 0.00 42 1021.6
20260503181842 69 195 4.0 6.0 0.00 0.00 0.00 42 1021.5
20260503181339 69 335 3.0 10.0 0.00 0.00 0.00 42 1021.7
20260503180836 69 306 3.0 9.0 0.00 0.00 0.00 42 1021.8
20260503180334 68 28 3.0 7.0 0.00 0.00 0.00 40 1021.9
20260503175830 68 45 2.0 5.0 0.00 0.00 0.00 42 1022.1
20260503175328 68 229 3.0 5.0 0.00 0.00 0.00 42 1022.1
20260503174823 68 251 5.0 8.0 0.00 0.00 0.00 42 1022.1
20260503174322 68 64 1.0 5.0 0.00 0.00 0.00 44 1022.3
20260503173817 68 222 3.0 7.0 0.00 0.00 0.00 44 1022.4
20260503173314 67 38 3.0 5.0 0.00 0.00 0.00 45 1022.1
20260503172810 67 116 1.0 7.0 0.00 0.00 0.00 43 1022.4
20260503172308 67 211 4.0 8.0 0.00 0.00 0.00 44 1022.5
20260503171804 66 209 2.0 8.0 0.00 0.00 0.00 44 1022.4
20260503171301 67 43 4.0 6.0 0.00 0.00 0.00 45 1022.6
20260503170758 66 88 2.0 9.0 0.00 0.00 0.00 44 1022.7
20260503170254 66 335 3.0 8.0 0.00 0.00 0.00 45 1022.8
20260503160217 64 88 1.0 3.0 0.00 0.00 0.00 51 1023.1
20260503150647 61 72 1.0 3.0 0.00 0.00 0.00 58 1023.1
20260503150143 61 95 1.0 3.0 0.00 0.00 0.00 60 1023.0
20260503140107 56 48 0.0 3.0 0.00 0.00 0.00 79 1022.6
20260503131037 49 18 0.0 2.0 0.00 0.00 0.00 88 1022.6
20260503130534 49 56 1.0 2.0 0.00 0.00 0.00 89 1022.6
20260503110424 44 89 0.0 2.0 0.00 0.00 0.00 88 1021.6
20260503090310 46 109 2.0 2.0 0.00 0.00 0.00 86 1020.5
20260503081237 47 75 0.0 1.0 0.00 0.00 0.00 83 1020.5
20260503080732 47 58 1.0 1.0 0.00 0.00 0.00 83 1020.2
20260503080230 47 126 2.0 2.0 0.00 0.00 0.00 83 1020.1
20260503072707 48 31 1.0 2.0 0.00 0.00 0.00 82 1020.0
20260503072203 49 55 0.0 0.0 0.00 0.00 0.00 82 1020.0
20260503071700 49 58 0.0 1.0 0.00 0.00 0.00 83 1019.9
20260503071157 49 332 0.0 2.0 0.00 0.00 0.00 83 1019.8
20260503070653 49 82 0.0 2.0 0.00 0.00 0.00 83 1019.7
20260503070152 49 307 0.0 2.0 0.00 0.00 0.00 83 1019.8
20260503060116 49 133 2.0 2.0 0.00 0.00 0.00 84 1019.7
20260503055108 49 112 2.0 2.0 0.00 0.00 0.00 83 1019.6
20260503054603 49 130 0.0 1.0 0.00 0.00 0.00 83 1019.4
20260503054100 49 93 1.0 2.0 0.00 0.00 0.00 83 1019.5
20260503053558 49 124 1.0 1.0 0.00 0.00 0.00 83 1019.5
20260503053056 49 93 1.0 1.0 0.00 0.00 0.00 82 1019.3
20260503052553 50 78 0.0 2.0 0.00 0.00 0.00 82 1019.3
20260503052049 50 94 0.0 1.0 0.00 0.00 0.00 82 1019.3
20260503051544 50 116 0.0 2.0 0.00 0.00 0.00 82 1019.0
20260503051042 50 119 1.0 2.0 0.00 0.00 0.00 81 1019.2
20260503050538 50 106 1.0 1.0 0.00 0.00 0.00 81 1019.0
20260503050036 50 119 0.0 2.0 0.00 0.01 0.01 81 1019.0
20260503045532 50 116 2.0 2.0 0.00 0.01 0.01 80 1019.1
20260503045030 50 111 1.0 2.0 0.00 0.01 0.01 80 1018.9
20260503044526 50 81 0.0 2.0 0.00 0.01 0.01 80 1019.0
20260503044024 50 118 0.0 1.0 0.00 0.01 0.01 79 1018.8
20260503043520 51 105 1.0 2.0 0.00 0.01 0.01 79 1018.7
20260503043017 51 94 0.0 2.0 0.00 0.01 0.01 79 1018.8
20260503042514 51 114 1.0 2.0 0.00 0.01 0.01 78 1018.7
20260503042010 51 109 2.0 2.0 0.00 0.01 0.01 78 1018.7
20260503041507 51 102 1.0 2.0 0.00 0.01 0.01 78 1018.6
20260503041005 51 103 1.0 2.0 0.00 0.01 0.01 78 1018.6
20260503040502 51 101 1.0 2.0 0.00 0.01 0.01 78 1018.6
20260503035959 51 111 1.0 1.0 0.00 0.01 0.01 77 1018.5
20260503035455 51 110 0.0 2.0 0.00 0.01 0.01 77 1018.7
20260503034953 51 112 1.0 2.0 0.00 0.01 0.01 76 1018.5
20260503034450 51 123 1.0 2.0 0.00 0.01 0.01 76 1018.4
20260503033947 52 110 1.0 2.0 0.00 0.01 0.01 75 1018.3
20260503033444 52 75 0.0 1.0 0.00 0.01 0.01 75 1018.5
20260503032942 52 109 0.0 1.0 0.00 0.01 0.01 75 1018.5
20260503032441 52 108 1.0 2.0 0.00 0.01 0.01 74 1018.5
20260503031938 52 117 0.0 2.0 0.00 0.01 0.01 74 1018.4
20260503031435 52 120 1.0 2.0 0.00 0.01 0.01 74 1018.5
20260503030932 52 117 0.0 2.0 0.00 0.01 0.01 73 1018.4
20260503030423 52 109 1.0 1.0 0.00 0.01 0.01 72 1018.4
20260503025920 53 93 1.0 2.0 0.00 0.01 0.01 71 1018.4
20260503025417 53 109 1.0 2.0 0.00 0.01 0.01 71 1018.4
20260503024914 53 108 1.0 2.0 0.00 0.01 0.01 71 1018.4
20260503024410 53 113 1.0 2.0 0.00 0.01 0.01 71 1018.3
20260503023907 53 103 0.0 2.0 0.00 0.01 0.01 70 1018.4
20260503023404 53 123 0.0 2.0 0.00 0.01 0.01 70 1018.3
20260503022901 53 126 2.0 2.0 0.00 0.01 0.01 69 1018.3
20260503022356 53 144 1.0 2.0 0.00 0.01 0.01 69 1018.2
20260503021852 54 119 1.0 2.0 0.00 0.01 0.01 67 1018.0
20260503021349 54 110 1.0 2.0 0.00 0.01 0.01 67 1017.9
20260503020846 54 108 1.0 2.0 0.00 0.01 0.01 66 1018.0
20260503020344 55 119 2.0 2.0 0.00 0.01 0.01 65 1017.9
20260503015840 55 110 1.0 2.0 0.00 0.01 0.01 65 1018.0
20260503015337 56 110 1.0 2.0 0.00 0.01 0.01 63 1017.8
20260503014833 56 123 1.0 2.0 0.00 0.01 0.01 62 1017.7
20260503014331 57 123 2.0 2.0 0.00 0.01 0.01 61 1017.7
20260503013828 58 121 1.0 2.0 0.00 0.01 0.01 59 1017.6
20260503013325 58 136 1.0 1.0 0.00 0.01 0.01 58 1017.5
20260503012822 58 115 0.0 1.0 0.00 0.01 0.01 57 1017.6
20260503012320 58 133 1.0 2.0 0.00 0.01 0.01 56 1017.4
20260503011816 59 124 1.0 2.0 0.00 0.01 0.01 55 1017.6
20260503011313 59 123 1.0 2.0 0.00 0.01 0.01 54 1017.2
20260503010810 60 113 1.0 2.0 0.00 0.01 0.01 53 1017.1
20260503010307 60 142 1.0 2.0 0.00 0.01 0.01 53 1017.2
20260503005804 61 118 0.0 1.0 0.00 0.01 0.01 52 1016.9
20260503005304 61 142 0.0 1.0 0.00 0.01 0.01 51 1017.2
20260503004757 62 25 0.0 1.0 0.00 0.01 0.01 51 1017.0
20260503004255 62 130 0.0 2.0 0.00 0.01 0.01 50 1017.0
20260503003752 63 106 1.0 2.0 0.00 0.01 0.01 49 1016.8
20260503003249 63 134 1.0 1.0 0.00 0.01 0.01 49 1016.8
20260503002745 63 117 0.0 0.0 0.00 0.01 0.01 48 1016.8
20260503002243 64 117 0.0 0.0 0.00 0.01 0.01 47 1016.8
20260503001739 64 131 1.0 1.0 0.00 0.01 0.01 46 1016.7
20260503001235 64 113 0.0 1.0 0.00 0.01 0.01 45 1016.6
20260503000734 65 25 0.0 2.0 0.00 0.01 0.01 44 1016.3
20260503000233 65 117 0.0 1.0 0.00 0.01 0.01 44 1016.5
20260502235727 66 113 0.0 3.0 0.00 0.01 0.01 44 1016.4
20260502235226 66 62 0.0 0.0 0.00 0.01 0.01 44 1016.4
20260502234721 66 212 0.0 1.0 0.00 0.01 0.01 43 1016.4
20260502234219 66 22 3.0 3.0 0.00 0.01 0.01 43 1016.2
20260502233714 66 37 0.0 3.0 0.00 0.01 0.01 43 1016.3
20260502233211 66 219 0.0 2.0 0.00 0.01 0.01 41 1016.3
20260502232707 67 62 0.0 3.0 0.00 0.01 0.01 40 1016.2
20260502232205 67 23 2.0 3.0 0.00 0.01 0.01 40 1016.1